TimeMST,TemperatureF,Dew PointF,Humidity,Sea Level PressureIn,VisibilityMPH,Wind Direction,Wind SpeedMPH,Gust SpeedMPH,PrecipitationIn,Events,Conditions,WindDirDegrees,DateUTC
12:53 AM,21.9,10.9,63,30.22,10.0,SSW,3.5,-,N/A,,Clear,210,2012-12-29 07:53:00
1:53 AM,23.0,10.0,58,30.25,10.0,Calm,Calm,-,N/A,,Clear,0,2012-12-29 08:53:00
2:53 AM,21.9,10.0,60,30.29,10.0,North,5.8,-,N/A,,Clear,10,2012-12-29 09:53:00
3:53 AM,17.1,7.0,65,30.29,10.0,NW,4.6,-,N/A,,Clear,320,2012-12-29 10:53:00
4:53 AM,16.0,7.0,68,30.30,10.0,WNW,3.5,-,N/A,,Clear,300,2012-12-29 11:53:00
5:53 AM,18.0,9.0,68,30.33,10.0,West,4.6,-,N/A,,Clear,270,2012-12-29 12:53:00
6:53 AM,18.0,9.0,68,30.38,10.0,West,5.8,-,N/A,,Clear,270,2012-12-29 13:53:00
7:53 AM,23.0,10.9,60,30.40,10.0,West,3.5,-,N/A,,Clear,260,2012-12-29 14:53:00
8:53 AM,28.9,12.9,51,30.40,10.0,Calm,Calm,-,N/A,,Clear,0,2012-12-29 15:53:00
9:53 AM,36.0,14.0,41,30.39,10.0,Calm,Calm,-,N/A,,Clear,0,2012-12-29 16:53:00
10:53 AM,41.0,15.1,35,30.35,10.0,SSE,6.9,-,N/A,,Clear,160,2012-12-29 17:53:00
11:53 AM,43.0,15.1,32,30.33,10.0,SSE,8.1,-,N/A,,Clear,160,2012-12-29 18:53:00
12:53 PM,44.1,15.1,31,30.29,10.0,ESE,9.2,17.3,N/A,,Clear,120,2012-12-29 19:53:00
1:53 PM,45.0,15.1,30,30.27,10.0,SE,10.4,-,N/A,,Clear,130,2012-12-29 20:53:00
2:53 PM,46.0,15.1,29,30.25,10.0,SSE,9.2,19.6,N/A,,Clear,160,2012-12-29 21:53:00
3:53 PM,44.6,15.8,31,30.22,10.0,SSE,12.7,-,N/A,,Clear,160,2012-12-29 22:53:00
4:53 PM,42.1,14.0,32,30.26,10.0,South,6.9,-,N/A,,Clear,180,2012-12-29 23:53:00
5:53 PM,37.0,14.0,39,30.27,10.0,South,8.1,-,N/A,,Clear,170,2012-12-30 00:53:00
6:53 PM,28.0,10.0,47,30.29,10.0,South,6.9,-,N/A,,Clear,190,2012-12-30 01:53:00
7:53 PM,33.1,12.9,43,30.27,10.0,South,8.1,-,N/A,,Clear,180,2012-12-30 02:53:00
8:53 PM,33.1,12.9,43,30.26,10.0,South,8.1,-,N/A,,Clear,180,2012-12-30 03:53:00
9:53 PM,30.9,12.0,46,30.24,10.0,SSW,6.9,-,N/A,,Clear,200,2012-12-30 04:53:00
10:53 PM,30.2,12.2,47,30.23,10.0,South,8.1,-,N/A,,Clear,190,2012-12-30 05:53:00
11:53 PM,32.0,12.0,44,30.17,10.0,SSE,12.7,-,N/A,,Clear,160,2012-12-30 06:53:00